| time (UTC) | temp F | wind direction | speed knots | gust knots | rain 1hr in | rain 24hr in | rain mn in | humidity % | barometer mb |
| 20260831055246 | 59 | 220 | 0.0 | 0.0 | 0.00 | 0.00 | 0.00 | 6 | 1012.6 |
| 20260831054746 | 59 | 220 | 0.0 | 0.0 | 0.00 | 0.00 | 0.00 | 6 | 1012.7 |
| 20260831053746 | 59 | 220 | 0.0 | 0.0 | 0.00 | 0.00 | 0.00 | 6 | 1012.8 |
| 20260831053246 | 59 | 220 | 0.0 | 0.0 | 0.00 | 0.00 | 0.00 | 6 | 1012.8 |
| 20260831052246 | 60 | 219 | 0.0 | 0.0 | 0.00 | 0.00 | 0.00 | 6 | 1012.8 |
| 20260831051246 | 60 | 220 | 0.0 | 0.0 | 0.00 | 0.00 | 0.00 | 7 | 1012.8 |
| 20260831050746 | 60 | 219 | 0.0 | 0.0 | 0.00 | 0.00 | 0.00 | 7 | 1012.8 |
| 20260831050246 | 60 | 220 | 0.0 | 0.0 | 0.00 | 0.00 | 0.00 | 7 | 1012.8 |
| 20260831045745 | 60 | 220 | 0.0 | 0.0 | 0.00 | 0.00 | 0.00 | 7 | 1012.7 |
| 20260831045245 | 61 | 220 | 0.0 | 0.0 | 0.00 | 0.00 | 0.00 | 11 | 1012.7 |
| 20260831044745 | 61 | 220 | 0.0 | 0.0 | 0.00 | 0.00 | 0.00 | 11 | 1012.7 |
| 20260831044245 | 61 | 220 | 0.0 | 0.0 | 0.00 | 0.00 | 0.00 | 11 | 1012.7 |
| 20260831043745 | 61 | 220 | 0.0 | 0.0 | 0.00 | 0.00 | 0.00 | 11 | 1012.6 |
| 20260831043245 | 61 | 220 | 0.0 | 0.0 | 0.00 | 0.00 | 0.00 | 11 | 1012.5 |
| 20260831042745 | 61 | 220 | 0.0 | 0.0 | 0.00 | 0.00 | 0.00 | 11 | 1012.5 |
| 20260831042246 | 61 | 220 | 0.0 | 0.0 | 0.00 | 0.00 | 0.00 | 12 | 1012.4 |
| 20260831041745 | 61 | 220 | 0.0 | 0.0 | 0.00 | 0.00 | 0.00 | 13 | 1012.4 |
| 20260831035745 | 62 | 220 | 0.0 | 0.0 | 0.00 | 0.00 | 0.00 | 18 | 1012.2 |
| 20260831035245 | 62 | 220 | 0.0 | 0.0 | 0.00 | 0.00 | 0.00 | 19 | 1012.2 |
| 20260831034745 | 62 | 220 | 0.0 | 0.0 | 0.00 | 0.00 | 0.00 | 20 | 1012.1 |
| 20260831034245 | 63 | 220 | 0.0 | 0.0 | 0.00 | 0.00 | 0.00 | 21 | 1012.0 |
| 20260831033745 | 63 | 219 | 0.0 | 0.0 | 0.00 | 0.00 | 0.00 | 23 | 1011.8 |
| 20260831033245 | 63 | 219 | 0.0 | 0.0 | 0.00 | 0.00 | 0.00 | 24 | 1011.9 |
| 20260831032745 | 63 | 220 | 0.0 | 0.0 | 0.00 | 0.00 | 0.00 | 25 | 1011.8 |
| 20260831032245 | 64 | 220 | 0.0 | 0.0 | 0.00 | 0.00 | 0.00 | 26 | 1011.8 |
| 20260831031745 | 64 | 219 | 0.0 | 0.0 | 0.00 | 0.00 | 0.00 | 27 | 1011.7 |
| 20260831031245 | 64 | 220 | 0.0 | 0.0 | 0.00 | 0.00 | 0.00 | 28 | 1011.7 |
| 20260831030745 | 64 | 220 | 0.0 | 0.0 | 0.00 | 0.00 | 0.00 | 28 | 1011.7 |
| 20260831030244 | 65 | 219 | 0.0 | 0.0 | 0.00 | 0.00 | 0.00 | 29 | 1011.7 |
| 20260831025745 | 65 | 219 | 0.0 | 0.0 | 0.00 | 0.00 | 0.00 | 30 | 1011.7 |
| 20260831025245 | 65 | 220 | 0.0 | 0.0 | 0.00 | 0.00 | 0.00 | 30 | 1011.6 |
| 20260831024745 | 65 | 220 | 0.0 | 0.0 | 0.00 | 0.00 | 0.00 | 31 | 1011.6 |
| 20260831024244 | 66 | 219 | 0.0 | 0.0 | 0.00 | 0.00 | 0.00 | 32 | 1011.6 |
| 20260831023744 | 66 | 220 | 0.0 | 0.0 | 0.00 | 0.00 | 0.00 | 32 | 1011.4 |
| 20260831023244 | 67 | 220 | 0.0 | 0.0 | 0.00 | 0.00 | 0.00 | 33 | 1011.4 |
| 20260831022244 | 67 | 219 | 0.0 | 0.0 | 0.00 | 0.00 | 0.00 | 34 | 1011.4 |
| 20260831021244 | 68 | 220 | 0.0 | 0.0 | 0.00 | 0.00 | 0.00 | 35 | 1011.4 |
| 20260831020744 | 68 | 220 | 0.0 | 0.0 | 0.00 | 0.00 | 0.00 | 36 | 1011.4 |
| 20260831020244 | 69 | 220 | 0.0 | 0.0 | 0.00 | 0.00 | 0.00 | 37 | 1011.3 |
| 20260831015744 | 69 | 220 | 0.0 | 0.0 | 0.00 | 0.00 | 0.00 | 38 | 1011.4 |
| 20260831015244 | 69 | 220 | 0.0 | 0.0 | 0.00 | 0.00 | 0.00 | 39 | 1011.4 |
| 20260831014744 | 69 | 220 | 0.0 | 0.0 | 0.00 | 0.00 | 0.00 | 40 | 1011.4 |
| 20260831014244 | 70 | 219 | 0.0 | 0.0 | 0.00 | 0.00 | 0.00 | 40 | 1011.4 |
| 20260831013744 | 70 | 220 | 0.0 | 0.0 | 0.00 | 0.00 | 0.00 | 41 | 1011.5 |
| 20260831013243 | 71 | 220 | 0.0 | 0.0 | 0.00 | 0.00 | 0.00 | 42 | 1011.4 |
| 20260831012743 | 71 | 219 | 0.0 | 0.0 | 0.00 | 0.00 | 0.00 | 42 | 1011.4 |
| 20260831012243 | 72 | 220 | 0.0 | 0.0 | 0.00 | 0.00 | 0.00 | 42 | 1011.4 |
| 20260831011243 | 72 | 219 | 0.0 | 0.0 | 0.00 | 0.00 | 0.00 | 43 | 1011.2 |
| 20260831010743 | 73 | 219 | 0.0 | 0.0 | 0.00 | 0.00 | 0.00 | 43 | 1011.2 |
| 20260831010244 | 73 | 220 | 0.0 | 0.0 | 0.00 | 0.00 | 0.00 | 44 | 1011.2 |
| 20260831005744 | 74 | 220 | 0.0 | 0.0 | 0.00 | 0.00 | 0.00 | 43 | 1011.2 |
| 20260831005243 | 74 | 220 | 0.0 | 0.0 | 0.00 | 0.00 | 0.00 | 43 | 1011.1 |
| 20260831004743 | 75 | 220 | 0.0 | 0.0 | 0.00 | 0.00 | 0.00 | 43 | 1011.0 |
| 20260831004244 | 75 | 219 | 0.0 | 0.0 | 0.00 | 0.00 | 0.00 | 43 | 1011.0 |
| 20260831003743 | 76 | 220 | 0.0 | 0.0 | 0.00 | 0.00 | 0.00 | 43 | 1011.2 |
| 20260831002743 | 77 | 220 | 0.0 | 0.0 | 0.00 | 0.00 | 0.00 | 42 | 1011.1 |
| 20260831002243 | 77 | 220 | 0.0 | 0.0 | 0.00 | 0.00 | 0.00 | 41 | 1011.1 |
| 20260831001743 | 78 | 219 | 0.0 | 0.0 | 0.00 | 0.00 | 0.00 | 41 | 1011.2 |
| 20260831001243 | 78 | 219 | 0.0 | 0.0 | 0.00 | 0.00 | 0.00 | 41 | 1011.1 |
| 20260831000743 | 79 | 219 | 0.0 | 0.0 | 0.00 | 0.00 | 0.00 | 41 | 1011.1 |
| 20260830235743 | 79 | 220 | 0.0 | 0.0 | 0.00 | 0.00 | 0.00 | 40 | 1011.1 |
| 20260830235243 | 79 | 219 | 0.0 | 0.0 | 0.00 | 0.00 | 0.00 | 40 | 1011.2 |
| 20260830234743 | 80 | 220 | 0.0 | 0.0 | 0.00 | 0.00 | 0.00 | 40 | 1011.2 |
| 20260830234243 | 80 | 220 | 0.0 | 0.0 | 0.00 | 0.00 | 0.00 | 39 | 1011.2 |
| 20260830233243 | 81 | 211 | 0.0 | 0.0 | 0.00 | 0.00 | 0.00 | 38 | 1011.2 |
| 20260830232743 | 82 | 195 | 0.0 | 0.0 | 0.00 | 0.00 | 0.00 | 38 | 1011.3 |
| 20260830232243 | 82 | 195 | 0.0 | 0.0 | 0.00 | 0.00 | 0.00 | 38 | 1011.3 |
| 20260830231742 | 82 | 195 | 0.0 | 0.0 | 0.00 | 0.00 | 0.00 | 38 | 1011.4 |
| 20260830230743 | 82 | 195 | 0.0 | 0.0 | 0.00 | 0.00 | 0.00 | 37 | 1011.3 |
| 20260830230242 | 82 | 195 | 0.0 | 0.0 | 0.00 | 0.00 | 0.00 | 38 | 1011.4 |
| 20260830225242 | 82 | 195 | 0.0 | 0.0 | 0.00 | 0.00 | 0.00 | 38 | 1011.4 |
| 20260830224742 | 81 | 195 | 0.0 | 0.0 | 0.00 | 0.00 | 0.00 | 38 | 1011.5 |
| 20260830224242 | 81 | 195 | 0.0 | 0.0 | 0.00 | 0.00 | 0.00 | 38 | 1011.5 |
| 20260830222742 | 82 | 195 | 0.0 | 0.0 | 0.00 | 0.00 | 0.00 | 37 | 1011.7 |
| 20260830222242 | 83 | 195 | 0.0 | 0.0 | 0.00 | 0.00 | 0.00 | 37 | 1011.7 |
| 20260830221742 | 83 | 195 | 0.0 | 0.0 | 0.00 | 0.00 | 0.00 | 37 | 1011.7 |
| 20260830221241 | 83 | 195 | 0.0 | 0.0 | 0.00 | 0.00 | 0.00 | 37 | 1011.8 |
| 20260830220742 | 83 | 195 | 0.0 | 0.0 | 0.00 | 0.00 | 0.00 | 37 | 1011.8 |
| 20260830220241 | 83 | 195 | 0.0 | 0.0 | 0.00 | 0.00 | 0.00 | 36 | 1011.8 |
| 20260830215741 | 84 | 194 | 0.0 | 0.0 | 0.00 | 0.00 | 0.00 | 36 | 1011.9 |
| 20260830215241 | 84 | 194 | 0.0 | 0.0 | 0.00 | 0.00 | 0.00 | 36 | 1012.0 |
| 20260830214742 | 84 | 194 | 0.0 | 0.0 | 0.00 | 0.00 | 0.00 | 36 | 1012.0 |
| 20260830214241 | 84 | 194 | 0.0 | 0.0 | 0.00 | 0.00 | 0.00 | 36 | 1012.0 |
| 20260830213742 | 84 | 194 | 0.0 | 0.0 | 0.00 | 0.00 | 0.00 | 35 | 1012.1 |
| 20260830213241 | 83 | 194 | 0.0 | 0.0 | 0.00 | 0.00 | 0.00 | 36 | 1012.2 |
| 20260830212241 | 84 | 194 | 0.0 | 0.0 | 0.00 | 0.00 | 0.00 | 35 | 1012.3 |
| 20260830211741 | 84 | 194 | 0.0 | 0.0 | 0.00 | 0.00 | 0.00 | 35 | 1012.4 |
| 20260830210741 | 84 | 194 | 0.0 | 0.0 | 0.00 | 0.00 | 0.00 | 35 | 1012.5 |
| 20260830205241 | 84 | 193 | 0.0 | 0.0 | 0.00 | 0.00 | 0.00 | 34 | 1012.6 |
| 20260830204741 | 84 | 192 | 0.0 | 0.0 | 0.00 | 0.00 | 0.00 | 34 | 1012.5 |
| 20260830203740 | 83 | 193 | 0.0 | 0.0 | 0.00 | 0.00 | 0.00 | 34 | 1012.5 |
| 20260830203241 | 83 | 192 | 0.0 | 0.0 | 0.00 | 0.00 | 0.00 | 34 | 1012.5 |
| 20260830202740 | 83 | 192 | 0.0 | 0.0 | 0.00 | 0.00 | 0.00 | 33 | 1012.6 |
| 20260830201240 | 83 | 193 | 0.0 | 0.0 | 0.00 | 0.00 | 0.00 | 33 | 1012.6 |
| 20260830195740 | 83 | 193 | 0.0 | 0.0 | 0.00 | 0.00 | 0.00 | 31 | 1012.5 |
| 20260830195240 | 83 | 192 | 0.0 | 0.0 | 0.00 | 0.00 | 0.00 | 31 | 1012.8 |
| 20260830194240 | 82 | 193 | 0.0 | 0.0 | 0.00 | 0.00 | 0.00 | 30 | 1012.8 |
| 20260830193740 | 82 | 193 | 0.0 | 0.0 | 0.00 | 0.00 | 0.00 | 29 | 1012.9 |
| 20260830193240 | 82 | 192 | 0.0 | 0.0 | 0.00 | 0.00 | 0.00 | 28 | 1012.8 |
| 20260830192740 | 81 | 192 | 0.0 | 0.0 | 0.00 | 0.00 | 0.00 | 28 | 1012.8 |
| 20260830192240 | 81 | 193 | 0.0 | 0.0 | 0.00 | 0.00 | 0.00 | 27 | 1012.8 |
| 20260830191240 | 80 | 193 | 0.0 | 0.0 | 0.00 | 0.00 | 0.00 | 25 | 1012.9 |
| 20260830190740 | 80 | 193 | 0.0 | 0.0 | 0.00 | 0.00 | 0.00 | 24 | 1012.9 |
| 20260830190239 | 79 | 193 | 0.0 | 0.0 | 0.00 | 0.00 | 0.00 | 23 | 1012.9 |
| 20260830185739 | 79 | 192 | 0.0 | 0.0 | 0.00 | 0.00 | 0.00 | 22 | 1012.9 |
| 20260830185239 | 78 | 192 | 0.0 | 0.0 | 0.00 | 0.00 | 0.00 | 21 | 1013.0 |
| 20260830184739 | 77 | 193 | 0.0 | 0.0 | 0.00 | 0.00 | 0.00 | 20 | 1013.0 |
| 20260830184239 | 77 | 193 | 0.0 | 0.0 | 0.00 | 0.00 | 0.00 | 19 | 1013.1 |
| 20260830182739 | 74 | 194 | 0.0 | 0.0 | 0.00 | 0.00 | 0.00 | 17 | 1013.3 |
| 20260830181739 | 73 | 194 | 0.0 | 0.0 | 0.00 | 0.00 | 0.00 | 15 | 1013.2 |
| 20260830181239 | 72 | 194 | 0.0 | 0.0 | 0.00 | 0.00 | 0.00 | 14 | 1013.1 |
| 20260830180309 | 70 | 194 | 0.0 | 0.0 | 0.00 | 0.00 | 0.00 | 13 | 1013.2 |
| 20260830175739 | 70 | 194 | 0.0 | 0.0 | 0.00 | 0.00 | 0.00 | 12 | 1013.3 |
| 20260830175239 | 69 | 194 | 0.0 | 0.0 | 0.00 | 0.00 | 0.00 | 11 | 1013.2 |
| 20260830174738 | 69 | 194 | 0.0 | 0.0 | 0.00 | 0.00 | 0.00 | 11 | 1013.1 |
| 20260830174238 | 69 | 194 | 0.0 | 0.0 | 0.00 | 0.00 | 0.00 | 9 | 1013.1 |
| 20260830173739 | 68 | 194 | 0.0 | 0.0 | 0.00 | 0.00 | 0.00 | 8 | 1013.1 |
| 20260830173239 | 68 | 194 | 0.0 | 0.0 | 0.00 | 0.00 | 0.00 | 7 | 1013.1 |
| 20260830172739 | 68 | 194 | 0.0 | 0.0 | 0.00 | 0.00 | 0.00 | 5 | 1013.1 |
| 20260830172239 | 67 | 194 | 0.0 | 0.0 | 0.00 | 0.00 | 0.00 | 4 | 1013.0 |
| 20260830171738 | 66 | 194 | 0.0 | 0.0 | 0.00 | 0.00 | 0.00 | 4 | 1013.0 |
| 20260830170739 | 64 | 194 | 0.0 | 0.0 | 0.00 | 0.00 | 0.00 | 4 | 1013.0 |
| 20260830170309 | 64 | 194 | 0.0 | 0.0 | 0.00 | 0.00 | 0.00 | 5 | 1013.1 |
| 20260830165739 | 63 | 194 | 0.0 | 0.0 | 0.00 | 0.00 | 0.00 | 7 | 1013.1 |
| 20260830164738 | 61 | 194 | 0.0 | 0.0 | 0.00 | 0.00 | 0.00 | 9 | 1013.1 |
| 20260830163738 | 59 | 194 | 0.0 | 0.0 | 0.00 | 0.00 | 0.00 | 10 | 1013.1 |
| 20260830163238 | 59 | 194 | 0.0 | 0.0 | 0.00 | 0.00 | 0.00 | 11 | 1013.3 |
| 20260830162738 | 58 | 194 | 0.0 | 0.0 | 0.00 | 0.00 | 0.00 | 11 | 1013.2 |
| 20260830161738 | 58 | 194 | 0.0 | 0.0 | 0.00 | 0.00 | 0.00 | 12 | 1013.0 |
| 20260830161308 | 57 | 194 | 0.0 | 0.0 | 0.00 | 0.00 | 0.00 | 12 | 1013.0 |
| 20260830160808 | 57 | 194 | 0.0 | 0.0 | 0.00 | 0.00 | 0.00 | 12 | 1013.0 |
| 20260830160307 | 57 | 194 | 0.0 | 0.0 | 0.00 | 0.00 | 0.00 | 12 | 1013.0 |
| 20260830155808 | 56 | 194 | 0.0 | 0.0 | 0.00 | 0.00 | 0.00 | 12 | 1013.1 |
| 20260830155308 | 56 | 194 | 0.0 | 0.0 | 0.00 | 0.00 | 0.00 | 12 | 1013.0 |
| 20260830154307 | 56 | 194 | 0.0 | 0.0 | 0.00 | 0.00 | 0.00 | 12 | 1013.1 |
| 20260830153308 | 56 | 194 | 0.0 | 0.0 | 0.00 | 0.00 | 0.00 | 12 | 1013.0 |
| 20260830152807 | 56 | 194 | 0.0 | 0.0 | 0.00 | 0.00 | 0.00 | 12 | 1012.9 |
| 20260830152307 | 56 | 194 | 0.0 | 0.0 | 0.00 | 0.00 | 0.00 | 12 | 1012.9 |
| 20260830151808 | 56 | 194 | 0.0 | 0.0 | 0.00 | 0.00 | 0.00 | 11 | 1012.9 |
| 20260830151308 | 56 | 194 | 0.0 | 0.0 | 0.00 | 0.00 | 0.00 | 11 | 1012.9 |
| 20260830150808 | 56 | 194 | 0.0 | 0.0 | 0.00 | 0.00 | 0.00 | 11 | 1012.9 |
| 20260830150308 | 56 | 194 | 0.0 | 0.0 | 0.00 | 0.00 | 0.00 | 11 | 1012.9 |
| 20260830145807 | 56 | 194 | 0.0 | 0.0 | 0.00 | 0.00 | 0.00 | 11 | 1013.1 |
| 20260830145308 | 56 | 194 | 0.0 | 0.0 | 0.00 | 0.00 | 0.00 | 11 | 1013.0 |
| 20260830144807 | 56 | 194 | 0.0 | 0.0 | 0.00 | 0.00 | 0.00 | 11 | 1013.0 |
| 20260830143307 | 56 | 194 | 0.0 | 0.0 | 0.00 | 0.00 | 0.00 | 11 | 1013.1 |
| 20260830142807 | 56 | 194 | 0.0 | 0.0 | 0.00 | 0.00 | 0.00 | 11 | 1013.1 |
| 20260830142307 | 56 | 194 | 0.0 | 0.0 | 0.00 | 0.00 | 0.00 | 11 | 1013.2 |
| 20260830141807 | 56 | 194 | 0.0 | 0.0 | 0.00 | 0.00 | 0.00 | 11 | 1013.0 |
| 20260830141307 | 56 | 194 | 0.0 | 0.0 | 0.00 | 0.00 | 0.00 | 11 | 1012.9 |
| 20260830140806 | 56 | 194 | 0.0 | 0.0 | 0.00 | 0.00 | 0.00 | 11 | 1012.9 |
| 20260830140306 | 56 | 194 | 0.0 | 0.0 | 0.00 | 0.00 | 0.00 | 11 | 1012.8 |
| 20260830135807 | 56 | 194 | 0.0 | 0.0 | 0.00 | 0.00 | 0.00 | 11 | 1012.8 |
| 20260830135307 | 56 | 194 | 0.0 | 0.0 | 0.00 | 0.00 | 0.00 | 11 | 1012.7 |
| 20260830134307 | 56 | 194 | 0.0 | 0.0 | 0.00 | 0.00 | 0.00 | 11 | 1012.4 |
| 20260830133806 | 56 | 194 | 0.0 | 0.0 | 0.00 | 0.00 | 0.00 | 11 | 1012.4 |
| 20260830133306 | 56 | 194 | 0.0 | 0.0 | 0.00 | 0.00 | 0.00 | 11 | 1012.4 |
| 20260830132806 | 56 | 194 | 0.0 | 0.0 | 0.00 | 0.00 | 0.00 | 11 | 1012.3 |
| 20260830131806 | 56 | 194 | 0.0 | 0.0 | 0.00 | 0.00 | 0.00 | 11 | 1012.3 |
| 20260830130807 | 56 | 194 | 0.0 | 0.0 | 0.00 | 0.00 | 0.00 | 11 | 1012.2 |
| 20260830125806 | 56 | 194 | 0.0 | 0.0 | 0.00 | 0.00 | 0.00 | 10 | 1012.2 |
| 20260830125306 | 56 | 194 | 0.0 | 0.0 | 0.00 | 0.00 | 0.00 | 11 | 1012.1 |
| 20260830124805 | 56 | 194 | 0.0 | 0.0 | 0.00 | 0.00 | 0.00 | 11 | 1012.0 |
| 20260830124305 | 56 | 194 | 0.0 | 0.0 | 0.00 | 0.00 | 0.00 | 11 | 1012.0 |
| 20260830123806 | 56 | 194 | 0.0 | 0.0 | 0.00 | 0.00 | 0.00 | 11 | 1012.0 |
| 20260830123305 | 56 | 194 | 0.0 | 0.0 | 0.00 | 0.00 | 0.00 | 11 | 1012.0 |
| 20260830122805 | 56 | 194 | 0.0 | 0.0 | 0.00 | 0.00 | 0.00 | 11 | 1012.1 |
| 20260830122306 | 56 | 194 | 0.0 | 0.0 | 0.00 | 0.00 | 0.00 | 11 | 1012.0 |
| 20260830121805 | 56 | 194 | 0.0 | 0.0 | 0.00 | 0.00 | 0.00 | 11 | 1012.0 |
| 20260830120805 | 56 | 194 | 0.0 | 0.0 | 0.00 | 0.00 | 0.00 | 10 | 1012.0 |
| 20260830120305 | 56 | 194 | 0.0 | 0.0 | 0.00 | 0.00 | 0.00 | 10 | 1012.0 |
| 20260830115805 | 56 | 194 | 0.0 | 0.0 | 0.00 | 0.00 | 0.00 | 10 | 1012.2 |
| 20260830114804 | 56 | 194 | 0.0 | 0.0 | 0.00 | 0.00 | 0.00 | 10 | 1012.3 |
| 20260830114305 | 56 | 194 | 0.0 | 0.0 | 0.00 | 0.00 | 0.00 | 10 | 1012.3 |
| 20260830113805 | 56 | 194 | 0.0 | 0.0 | 0.00 | 0.00 | 0.00 | 10 | 1012.3 |
| 20260830113304 | 56 | 194 | 0.0 | 0.0 | 0.00 | 0.00 | 0.00 | 10 | 1012.2 |
| 20260830112306 | 56 | 194 | 0.0 | 0.0 | 0.00 | 0.00 | 0.00 | 10 | 1012.2 |
| 20260830111805 | 57 | 194 | 0.0 | 0.0 | 0.00 | 0.00 | 0.00 | 10 | 1012.2 |
| 20260830111304 | 57 | 194 | 0.0 | 0.0 | 0.00 | 0.00 | 0.00 | 10 | 1012.2 |
| 20260830110804 | 57 | 194 | 0.0 | 0.0 | 0.00 | 0.00 | 0.00 | 9 | 1012.1 |
| 20260830110304 | 57 | 194 | 0.0 | 0.0 | 0.00 | 0.00 | 0.00 | 9 | 1012.3 |
| 20260830105305 | 57 | 194 | 0.0 | 0.0 | 0.00 | 0.00 | 0.00 | 9 | 1012.3 |
| 20260830104804 | 57 | 194 | 0.0 | 0.0 | 0.00 | 0.00 | 0.00 | 9 | 1012.2 |
| 20260830104304 | 57 | 194 | 0.0 | 0.0 | 0.00 | 0.00 | 0.00 | 9 | 1012.2 |
| 20260830103805 | 57 | 194 | 0.0 | 0.0 | 0.00 | 0.00 | 0.00 | 9 | 1012.2 |
| 20260830103304 | 57 | 194 | 0.0 | 0.0 | 0.00 | 0.00 | 0.00 | 9 | 1012.1 |
| 20260830102804 | 57 | 194 | 0.0 | 0.0 | 0.00 | 0.00 | 0.00 | 9 | 1012.1 |
| 20260830102306 | 57 | 194 | 0.0 | 0.0 | 0.00 | 0.00 | 0.00 | 9 | 1012.2 |
| 20260830101804 | 57 | 194 | 0.0 | 0.0 | 0.00 | 0.00 | 0.00 | 9 | 1012.1 |
| 20260830101304 | 57 | 194 | 0.0 | 0.0 | 0.00 | 0.00 | 0.00 | 9 | 1012.2 |
| 20260830100804 | 57 | 194 | 0.0 | 0.0 | 0.00 | 0.00 | 0.00 | 9 | 1012.1 |
| 20260830095803 | 58 | 194 | 0.0 | 0.0 | 0.00 | 0.00 | 0.00 | 9 | 1012.3 |
| 20260830095306 | 58 | 194 | 0.0 | 0.0 | 0.00 | 0.00 | 0.00 | 9 | 1012.2 |
| 20260830094804 | 58 | 194 | 0.0 | 0.0 | 0.00 | 0.00 | 0.00 | 9 | 1012.2 |
| 20260830094303 | 58 | 194 | 0.0 | 0.0 | 0.00 | 0.00 | 0.00 | 8 | 1012.1 |
| 20260830093803 | 58 | 194 | 0.0 | 0.0 | 0.00 | 0.00 | 0.00 | 8 | 1012.2 |
| 20260830093303 | 58 | 194 | 0.0 | 0.0 | 0.00 | 0.00 | 0.00 | 8 | 1012.1 |
| 20260830092803 | 58 | 194 | 0.0 | 0.0 | 0.00 | 0.00 | 0.00 | 8 | 1012.2 |
| 20260830092305 | 58 | 194 | 0.0 | 0.0 | 0.00 | 0.00 | 0.00 | 8 | 1012.2 |
| 20260830091803 | 58 | 194 | 0.0 | 0.0 | 0.00 | 0.00 | 0.00 | 8 | 1012.3 |
| 20260830091303 | 58 | 194 | 0.0 | 0.0 | 0.00 | 0.00 | 0.00 | 8 | 1012.3 |
| 20260830090803 | 58 | 194 | 0.0 | 0.0 | 0.00 | 0.00 | 0.00 | 7 | 1012.2 |
| 20260830090303 | 58 | 194 | 0.0 | 0.0 | 0.00 | 0.00 | 0.00 | 7 | 1012.2 |
| 20260830085803 | 58 | 194 | 0.0 | 0.0 | 0.00 | 0.00 | 0.00 | 7 | 1012.3 |
| 20260830085306 | 58 | 194 | 0.0 | 0.0 | 0.00 | 0.00 | 0.00 | 7 | 1012.4 |
| 20260830084803 | 58 | 194 | 0.0 | 0.0 | 0.00 | 0.00 | 0.00 | 7 | 1012.4 |
| 20260830084303 | 57 | 194 | 0.0 | 0.0 | 0.00 | 0.00 | 0.00 | 7 | 1012.4 |
| 20260830083803 | 57 | 194 | 0.0 | 0.0 | 0.00 | 0.00 | 0.00 | 6 | 1012.5 |
| 20260830083303 | 57 | 194 | 0.0 | 0.0 | 0.00 | 0.00 | 0.00 | 6 | 1012.4 |
| 20260830082802 | 57 | 194 | 0.0 | 0.0 | 0.00 | 0.00 | 0.00 | 7 | 1012.4 |
| 20260830082306 | 57 | 194 | 0.0 | 0.0 | 0.00 | 0.00 | 0.00 | 7 | 1012.4 |
| 20260830081802 | 58 | 194 | 0.0 | 0.0 | 0.00 | 0.00 | 0.00 | 6 | 1012.5 |
| 20260830081302 | 58 | 194 | 0.0 | 0.0 | 0.00 | 0.00 | 0.00 | 6 | 1012.6 |
| 20260830080802 | 58 | 194 | 0.0 | 0.0 | 0.00 | 0.00 | 0.00 | 6 | 1012.6 |
| 20260830080302 | 58 | 194 | 0.0 | 0.0 | 0.00 | 0.00 | 0.00 | 6 | 1012.6 |
| 20260830075802 | 58 | 194 | 0.0 | 0.0 | 0.00 | 0.00 | 0.00 | 6 | 1012.5 |
| 20260830074303 | 58 | 194 | 0.0 | 0.0 | 0.00 | 0.00 | 0.00 | 7 | 1012.6 |
| 20260830073802 | 58 | 194 | 0.0 | 0.0 | 0.00 | 0.00 | 0.00 | 7 | 1012.5 |
| 20260830073302 | 59 | 194 | 0.0 | 0.0 | 0.00 | 0.00 | 0.00 | 7 | 1012.7 |
| 20260830071803 | 59 | 194 | 0.0 | 0.0 | 0.00 | 0.00 | 0.00 | 6 | 1012.5 |
| 20260830071303 | 59 | 194 | 0.0 | 0.0 | 0.00 | 0.00 | 0.00 | 6 | 1012.6 |
| 20260830070802 | 59 | 194 | 0.0 | 0.0 | 0.00 | 0.00 | 0.00 | 7 | 1012.6 |
| 20260830070302 | 59 | 194 | 0.0 | 0.0 | 0.00 | 0.00 | 0.00 | 7 | 1012.6 |
| 20260830065802 | 59 | 194 | 0.0 | 0.0 | 0.00 | 0.00 | 0.00 | 7 | 1012.3 |
| 20260830065305 | 59 | 194 | 0.0 | 0.0 | 0.00 | 0.00 | 0.00 | 7 | 1012.3 |
| 20260830064802 | 59 | 194 | 0.0 | 0.0 | 0.00 | 0.00 | 0.00 | 7 | 1012.3 |
| 20260830064302 | 59 | 194 | 0.0 | 0.0 | 0.00 | 0.00 | 0.00 | 7 | 1012.3 |
| 20260830063802 | 60 | 194 | 0.0 | 0.0 | 0.00 | 0.00 | 0.00 | 7 | 1012.2 |
| 20260830063302 | 60 | 194 | 0.0 | 0.0 | 0.00 | 0.00 | 0.00 | 8 | 1012.3 |
| 20260830062801 | 60 | 194 | 0.0 | 0.0 | 0.00 | 0.00 | 0.00 | 8 | 1012.4 |
| 20260830062305 | 60 | 194 | 0.0 | 0.0 | 0.00 | 0.00 | 0.00 | 8 | 1012.4 |
| 20260830061802 | 60 | 194 | 0.0 | 0.0 | 0.00 | 0.00 | 0.00 | 8 | 1012.3 |
| 20260830061302 | 60 | 194 | 0.0 | 0.0 | 0.00 | 0.00 | 0.00 | 8 | 1012.3 |
| 20260830060801 | 60 | 194 | 0.0 | 0.0 | 0.00 | 0.00 | 0.00 | 9 | 1012.5 |